• Em Portugal
  • Lista de países
  • Para 7 dias
  • Temperatura da água
  • Mapas de satélite
  • Mapa do tempo
  • Widgets de tempo
  • user-avatar
    Iniciar Sessão

    Previsão horária em Pabna

    Hoje, 16 Julho, Segunda-feira

    Tempo Temperatura Precipitação Vento Pressão Humidade
    00:00 +32°C° 0 mm 5 m/s 746 mmHg 80%
    01:00 +30°C° 0 mm 4 m/s 746 mmHg 82%
    02:00 +30°C° 0 mm 4 m/s 746 mmHg 84%
    03:00 +30°C° 0 mm 4 m/s 746 mmHg 85%
    04:00 +30°C° 0 mm 4 m/s 746 mmHg 86%
    05:00 +29°C° 0 mm 4 m/s 746 mmHg 86%
    06:00 +29°C° 0 mm 4 m/s 746 mmHg 87%
    07:00 +30°C° 0,1 mm 5 m/s 746 mmHg 82%
    08:00 +33°C° 0,1 mm 5 m/s 746 mmHg 76%
    09:00 +34°C° 0,1 mm 6 m/s 747 mmHg 71%
    10:00 +35°C° 0,3 mm 6 m/s 746 mmHg 68%
    11:00 +36°C° 0,3 mm 7 m/s 746 mmHg 65%
    12:00 +38°C° 0,3 mm 7 m/s 746 mmHg 61%
    13:00 +38°C° 0,2 mm 8 m/s 745 mmHg 61%
    14:00 +38°C° 0,2 mm 8 m/s 745 mmHg 60%
    15:00 +38°C° 0,2 mm 8 m/s 744 mmHg 60%
    16:00 +37°C° 0 mm 8 m/s 744 mmHg 63%
    17:00 +35°C° 0 mm 7 m/s 744 mmHg 66%
    18:00 +34°C° 0 mm 7 m/s 744 mmHg 69%
    19:00 +33°C° 0 mm 6 m/s 744 mmHg 72%
    20:00 +33°C° 0 mm 6 m/s 745 mmHg 74%
    21:00 +32°C° 0 mm 6 m/s 746 mmHg 77%
    22:00 +32°C° 0 mm 5 m/s 746 mmHg 79%
    23:00 +30°C° 0 mm 5 m/s 746 mmHg 80%

    Amanhã, 17 Julho, Terça-feira

    Tempo Temperatura Precipitação Vento Pressão Humidade
    00:00 +30°C° 0 mm 5 m/s 746 mmHg 82%
    01:00 +30°C° 0,1 mm 5 m/s 746 mmHg 83%
    02:00 +30°C° 0,1 mm 5 m/s 746 mmHg 85%
    03:00 +29°C° 0,1 mm 5 m/s 746 mmHg 86%
    04:00 +29°C° 0,2 mm 5 m/s 746 mmHg 87%
    05:00 +29°C° 0,2 mm 4 m/s 746 mmHg 87%
    06:00 +29°C° 0,2 mm 4 m/s 746 mmHg 87%
    07:00 +30°C° 0 mm 5 m/s 746 mmHg 82%
    08:00 +33°C° 0 mm 5 m/s 747 mmHg 76%
    09:00 +34°C° 0 mm 6 m/s 747 mmHg 71%
    10:00 +35°C° 0,1 mm 6 m/s 747 mmHg 66%
    11:00 +36°C° 0,1 mm 6 m/s 746 mmHg 62%
    12:00 +38°C° 0,1 mm 6 m/s 746 mmHg 57%
    13:00 +38°C° 0,5 mm 6 m/s 745 mmHg 57%
    14:00 +38°C° 0,5 mm 6 m/s 745 mmHg 56%
    15:00 +39°C° 0,5 mm 6 m/s 744 mmHg 56%
    16:00 +38°C° 0,6 mm 6 m/s 744 mmHg 60%
    17:00 +36°C° 0,6 mm 5 m/s 744 mmHg 63%
    18:00 +35°C° 0,6 mm 5 m/s 744 mmHg 67%
    19:00 +34°C° 0 mm 4 m/s 744 mmHg 70%
    20:00 +34°C° 0 mm 4 m/s 745 mmHg 73%
    21:00 +33°C° 0 mm 4 m/s 746 mmHg 76%
    22:00 +32°C° 0 mm 4 m/s 746 mmHg 78%
    23:00 +32°C° 0 mm 4 m/s 746 mmHg 80%

    Depois de amanhã, 18 Julho, Quarta-feira

    Tempo Temperatura Precipitação Vento Pressão Humidade
    00:00 +30°C° 0 mm 4 m/s 746 mmHg 82%
    01:00 +30°C° 0 mm 4 m/s 746 mmHg 83%
    02:00 +30°C° 0 mm 4 m/s 746 mmHg 84%
    03:00 +30°C° 0 mm 3 m/s 746 mmHg 85%
    04:00 +30°C° 0 mm 4 m/s 746 mmHg 86%
    05:00 +30°C° 0 mm 4 m/s 746 mmHg 87%
    06:00 +29°C° 0 mm 4 m/s 746 mmHg 87%
    07:00 +32°C° 0 mm 4 m/s 747 mmHg 82%
    08:00 +33°C° 0 mm 5 m/s 747 mmHg 76%
    09:00 +34°C° 0 mm 5 m/s 748 mmHg 71%
    10:00 +35°C° 0,1 mm 5 m/s 747 mmHg 66%
    11:00 +36°C° 0,1 mm 5 m/s 747 mmHg 62%
    12:00 +37°C° 0,1 mm 5 m/s 747 mmHg 58%
    13:00 +39°C° 0,1 mm 5 m/s 746 mmHg 56%
    14:00 +39°C° 0,1 mm 5 m/s 745 mmHg 55%
    15:00 +38°C° 0,1 mm 4 m/s 744 mmHg 53%
    16:00 +38°C° 0,4 mm 4 m/s 744 mmHg 56%
    17:00 +37°C° 0,4 mm 3 m/s 744 mmHg 59%
    18:00 +37°C° 0,4 mm 3 m/s 744 mmHg 62%
    19:00 +36°C° 0,1 mm 3 m/s 744 mmHg 66%
    20:00 +35°C° 0,1 mm 3 m/s 745 mmHg 69%
    21:00 +34°C° 0,1 mm 3 m/s 746 mmHg 73%
    22:00 +33°C° 0 mm 3 m/s 746 mmHg 75%
    23:00 +32°C° 0 mm 4 m/s 746 mmHg 78%

    19 Julho, Quinta-feira

    Tempo Temperatura Precipitação Vento Pressão Humidade
    00:00 +32°C° 0 mm 4 m/s 746 mmHg 80%
    01:00 +31°C° 0 mm 3 m/s 746 mmHg 82%
    02:00 +30°C° 0 mm 3 m/s 746 mmHg 83%
    03:00 +30°C° 0 mm 3 m/s 745 mmHg 85%
    04:00 +30°C° 0 mm 3 m/s 746 mmHg 86%
    05:00 +30°C° 0 mm 2 m/s 746 mmHg 87%
    06:00 +29°C° 0 mm 2 m/s 746 mmHg 88%
    07:00 +31°C° 0 mm 3 m/s 746 mmHg 82%
    08:00 +33°C° 0 mm 3 m/s 747 mmHg 76%
    09:00 +34°C° 0 mm 4 m/s 747 mmHg 70%
    10:00 +35°C° 0 mm 4 m/s 747 mmHg 66%
    11:00 +36°C° 0 mm 4 m/s 746 mmHg 62%
    12:00 +37°C° 0 mm 4 m/s 746 mmHg 59%
    13:00 +37°C° 0 mm 4 m/s 745 mmHg 57%
    14:00 +37°C° 0 mm 4 m/s 745 mmHg 55%
    15:00 +38°C° 0 mm 4 m/s 744 mmHg 53%
    16:00 +37°C° 0 mm 3 m/s 744 mmHg 55%
    17:00 +37°C° 0 mm 3 m/s 744 mmHg 58%
    18:00 +36°C° 0 mm 3 m/s 744 mmHg 61%
    19:00 +35°C° 0 mm 3 m/s 744 mmHg 63%
    20:00 +35°C° 0 mm 3 m/s 745 mmHg 66%
    21:00 +34°C° 0 mm 3 m/s 745 mmHg 69%
    22:00 +33°C° 0,1 mm 3 m/s 745 mmHg 71%
    23:00 +33°C° 0,1 mm 3 m/s 746 mmHg 74%

    20 Julho, Sexta-feira

    Tempo Temperatura Precipitação Vento Pressão Humidade
    00:00 +32°C° 0,1 mm 4 m/s 746 mmHg 77%
    01:00 +31°C° 0,1 mm 3 m/s 745 mmHg 79%
    02:00 +31°C° 0,1 mm 3 m/s 745 mmHg 81%
    03:00 +30°C° 0,1 mm 2 m/s 745 mmHg 83%
    04:00 +30°C° 0 mm 2 m/s 745 mmHg 84%
    05:00 +30°C° 0 mm 2 m/s 745 mmHg 85%
    06:00 +30°C° 0 mm 2 m/s 746 mmHg 86%
    07:00 +31°C° 0 mm 2 m/s 746 mmHg 79%
    08:00 +33°C° 0 mm 3 m/s 746 mmHg 73%
    09:00 +35°C° 0 mm 3 m/s 747 mmHg 67%
    10:00 +36°C° 0 mm 3 m/s 746 mmHg 62%
    11:00 +37°C° 0 mm 3 m/s 746 mmHg 57%
    12:00 +38°C° 0 mm 3 m/s 745 mmHg 52%
    13:00 +38°C° 0 mm 3 m/s 745 mmHg 52%
    14:00 +38°C° 0 mm 3 m/s 744 mmHg 52%
    15:00 +38°C° 0 mm 3 m/s 743 mmHg 52%
    16:00 +38°C° 0 mm 3 m/s 743 mmHg 54%
    17:00 +37°C° 0 mm 2 m/s 743 mmHg 57%
    18:00 +37°C° 0 mm 2 m/s 743 mmHg 59%
    19:00 +36°C° 0,3 mm 3 m/s 744 mmHg 63%
    20:00 +35°C° 0,3 mm 3 m/s 744 mmHg 67%
    21:00 +34°C° 0,3 mm 4 m/s 745 mmHg 71%
    22:00 +33°C° 0,4 mm 3 m/s 745 mmHg 74%
    23:00 +33°C° 0,4 mm 3 m/s 745 mmHg 77%

    21 Julho, Sábado

    Tempo Temperatura Precipitação Vento Pressão Humidade
    00:00 +31°C° 0,4 mm 3 m/s 745 mmHg 80%
    01:00 +31°C° 0 mm 3 m/s 745 mmHg 81%
    02:00 +31°C° 0 mm 2 m/s 745 mmHg 82%
    03:00 +30°C° 0 mm 2 m/s 744 mmHg 83%
    04:00 +30°C° 0 mm 2 m/s 745 mmHg 83%
    05:00 +30°C° 0 mm 2 m/s 745 mmHg 84%
    06:00 +30°C° 0 mm 2 m/s 745 mmHg 85%
    07:00 +31°C° 0 mm 2 m/s 745 mmHg 79%
    08:00 +32°C° 0 mm 2 m/s 745 mmHg 73%
    09:00 +35°C° 0 mm 2 m/s 746 mmHg 67%
    10:00 +36°C° 0 mm 2 m/s 745 mmHg 62%
    11:00 +37°C° 0 mm 2 m/s 745 mmHg 57%
    12:00 +38°C° 0 mm 2 m/s 745 mmHg 52%
    13:00 +38°C° 0 mm 2 m/s 744 mmHg 51%
    14:00 +38°C° 0 mm 2 m/s 743 mmHg 50%
    15:00 +39°C° 0 mm 2 m/s 743 mmHg 49%
    16:00 +38°C° 0,2 mm 2 m/s 743 mmHg 52%
    17:00 +38°C° 0,2 mm 2 m/s 743 mmHg 56%
    18:00 +37°C° 0,2 mm 3 m/s 743 mmHg 59%
    19:00 +36°C° 0,7 mm 3 m/s 744 mmHg 63%
    20:00 +35°C° 0,7 mm 3 m/s 744 mmHg 68%
    21:00 +34°C° 0,7 mm 4 m/s 745 mmHg 72%
    22:00 +33°C° 0,5 mm 3 m/s 745 mmHg 74%
    23:00 +33°C° 0,5 mm 3 m/s 745 mmHg 77%
    Mostrar mais